Meath Environmental Platform

Observations

Time Sensor AQI SAQ Temp °C Hum % Pres Pa CO μg/m³ H₂S μg/m³ NO μg/m³ NO₂ μg/m³ O₃ μg/m³ SO₂ μg/m³ CO₂e PPM VOC PPM PM1 μg/m³ PM2.5 μg/m³ PM4 μg/m³ PM10 μg/m³ TPS µm
Thursday 13 August 2026
05:10 Trim Market St 2 21.4 74 35,812 0 0 1.56 3.82 42.82 0 2.85 4.31 6.93
05:09 Trim Market St 2 21.4 74 35,809 0 0 1.53 7.23 31.38 0 2.14 4.31 6.93
05:09 Trim Patrick St 2 20.9 77 38,460 0 1.58 1.62 8.44 31.63 4.54 6.29 8.92 9.81
05:08 Trim Patrick St 2 20.9 77 38,460 0 2.76 1.58 11.89 28.83 4.49 4.57 8.23 9.05
05:07 Trim Patrick St 2 20.9 78 38,460 0 0.73 1.74 13.41 22.77 3.96 5.43 8.91 9.8
05:06 Trim Market St 2 21.4 74 35,477 0 0 1.33 2.61 48.08 0 3.56 4.79 7.53
05:06 Trim Patrick St 2 20.9 78 38,460 0 0 1.77 11.76 26.97 4.21 5.43 10.32 11.35
05:02 Trim Patrick St 2 20.9 77 38,460 0 5.56 1.58 20.49 26.74 3.75 5.43 9.66 10.63
05:01 Trim Market St 2 21.4 74 34,943 0 0 1.44 7.99 36.95 0 3.56 4.79 7.53
05:01 Trim Patrick St 2 20.9 78 38,460 0 2.6 1.66 12.58 26.12 4.58 6.29 9.62 10.58
05:00 Trim Patrick St 2 20.9 77 38,460 0 2.97 1.67 14.71 23.51 3.9 5.43 8.94 9.83
04:59 Trim Patrick St 2 20.9 77 38,460 0 0 1.77 5.5 32.57 4.91 6.29 10.33 11.36
04:58 Trim Market St 2 21.4 74 34,986 0 0 1.38 5.7 38.57 0 3.56 4.31 6.93
04:58 Trim Patrick St 2 20.8 78 38,460 0 0 1.72 2 32.23 4.5 6.29 8.91 9.8
04:57 Trim Market St 2 21.4 74 35,008 0 0 1.29 9.51 35.54 0 2.85 4.79 7.53
04:57 Trim Patrick St 2 20.9 78 38,460 0 0.79 1.57 10.73 27.99 4.43 5.43 8.2 9.02
04:56 Trim Patrick St 2 20.9 78 38,460 0 3.03 1.73 12.21 26.36 4.36 5.43 9.61 10.57
04:55 Trim Market St 2 21.4 74 34,701 0 0 1.16 5.36 40.47 0 0.71 2.39 4.52
04:54 Trim Patrick St 2 20.9 78 38,460 0 0 1.49 10.73 25.99 4.04 5.43 8.9 9.79
04:52 Trim Patrick St 2 20.9 78 38,460 0 5.48 1.59 11.94 30.1 4.87 4.57 8.2 9.02